SCP
0 0 -0 0 0 0 0 0 0 0 0 0 0 0 0 0 0 0 0 -0 0 0 0 0 0 0 0 0 0 0 0 0 -0 0 0 0 -0 -0 -0 -0 -0 -0 -0 -0 0 -0 -0 -0 -0
0 0 0 0 0 0 0 0 0 0 0 0 0 0 0 0 0 0 0 0 0 0 0 0 0 0 0 0 0 0 0 0 0 0 0 0 -0 -0 -0 -0 -0 -0 -0 -0 0 -0 -0 -0 -0
0 0 0 0 0 0 0 0 0 0 0 0 0 0 0 -0 0 0 -0 -0 0 0 0 0 0 0 0 0 -0 -0 -0 -0 -0 -0 0 -0 -0 -0 -0 -0 -0 -0 -0 -0 -0 -0 -0 -0 -0
0 0 0 0 0 0 0 0 0 0 0 0 0 0 0 0 0 0 -0 -0 -0 0 -0 0 -0 -0 0 -0 -0 -0 -0 -0 -0 -0 -0 -0 -0 -0 -0 -0 -0 -0 -0 -0 0 0 0 0 0
0 0 0 0 0 0 0 0 0 0 0 0 0 0 0 0 0 -0 -0 -0 -0 -0 -0 -0 -0 -0 -0 -0 -0 -0 -0 -0 -0 -0 -0 -0 -0 -0 -0 -0 -0 -0 -0 0 0 0 0 0 0
0 0 0 0 0 0 0 0 0 0 0 0 0 0 0 0 -0 -0 -0 -0 -0 -0 -0 -0 -0 -0 -0 -0 -0 -0 -0 -0 -0 -0 -0 -0 -0 -0 -0 -0 -0 -0 -0 -0 0 0 0 0 0
0 0 0 0 0 0 0 0 0 0 0 0 0 0 0 0 0 -0 -0 -0 -0 -0 -0 -0 -0 -0 -0 -0 -0 -0 -0 -0 -0 -0 -0 -0 -0 -0 -0 -0 -0 -0 -0 -0 0 0 0 0 0
0 0 0 0 0 0 0 0 0 0 0 0 0 0 0 -0 0 -0 -0 -0 -0 -0 -0 -0 -0 -0 -0 -0 -0 -0 -0 -0 -0 -0 -0 -0 -0 -0 -0 -0 -0 -0 -0 -0 0 0 0 0 0
0 0 0 0 0 0 0 0 0 0 0 0 0 0 0 0 0 0 0 0 -0 -0 -0 -0 -0 -0 -0 -0 -0 -0 -0 -0 -0 -0 -0 -0 -0 -0 -0 -0 -0 -0 -0 0 0 0 0 0 0
0 0 0 0 0 0 0 0 0 0 0 0 0 0 0 0 0 -0 -0 -0 -0 -0 -0 -0 -0 -0 -0 -0 -0 0 -0 0 0 0 0 0 0 0 -0 -0 -0 -0 0 0 0 0 0 0 0
0 0 0 0 0 0 0 0 0 0 0 0 0 0 0 0 0 0 0 -0 -0 -0 -0 -0 -0 -0 -0 -0 0 0 0 0 0 0 0 0 0 0 0 0 0 0 0 0 0 0 0 0 0
0 0 0 0 0 0 0 0 0 0 0 0 0 0 0 0 0 0 0 0 0 -0 -0 -0 -0 -0 -0 0 0 0 0 0 0 0 0 0 0 0 0 0 0 0 0 0 0 0 0 0 0
0 0 0 0 0 0 0 0 0 0 0 0 0 0 0 0 0 0 0 0 0 0 0 -0 -0 -0 -0 -0 0 0 0 0 0 0 0 0 0 0 0 0 0 0 0 0 0 0 0 0 0
0 0 0 0 0 0 0 0 0 0 0 0 0 0 0 0 0 0 0 0 0 0 0 -0 -0 0 -0 0 0 0 0 0 0 0 0 0 0 0 0 0 0 0 0 0 0 0 0 0 0
0 0 0 0 0 0 0 0 0 0 0 0 0 0 0 0 0 0 0 0 0 0 0 0 0 0 0 0 0 0 0 0 0 0 0 0 0 0 0 0 0 0 0 0 0 0 0 0 0
0 0 0 0 0 0 0 0 0 0 0 0 0 0 0 0 0 0 0 0 0 0 0 0 0 0 0 0 0 0 0 0 0 0 0 0 0 0 0 0 0 0 0 0 0 0 0 0 0
0 0 0 0 0 0 0 0 -0 0 0 0 0 0 0 0 0 0 0 0 0 0 0 0 0 0 0 0 0 0 0 0 0 0 0 0 0 0 0 0 0 0 0 0 0 0 0 0 0
0 0 0 0 0 0 0 0 0 0 0 0 0 0 0 0 0 0 0 0 0 0 0 0 0 0 0 0 0 0 0 0 0 0 0 0 0 0 0 0 0 0 0 0 0 0 0 0 0
0 0 0 0 0 0 0 0 0 0 0 0 0 0 0 0 0 0 0 0 0 0 0 0 0 0 0 0 0 0 0 0 0 0 0 0 0 0 0 0 0 0 0 0 0 0 0 0 0
0 0 0 0 0 0 0 0 0 0 0 0 0 0 0 0 0 0 0 0 0 0 0 0 0 0 0 0 0 0 0 0 0 0 0 0 0 0 0 0 0 0 0 0 0 0 0 0 0
0 0 0 0 0 0 0 -0 -0 -0 0 0 0 0 0 0 0 0 0 0 0 0 0 0 0 0 0 0 0 0 0 0 0 0 0 0 0 0 0 0 0 0 0 0 0 0 0 0 0
0 0 0 0 0 0 0 -0 0 0 0 0 0 -0 -0 0 0 0 0 0 0 0 0 0 0 0 0 0 0 0 0 0 0 0 0 0 0 0 0 0 0 0 0 0 0 0 0 0 0
0 0 0 0 0 0 0 0 -0 0 0 0 0 0 0 0 0 0 0 0 0 0 0 0 0 0 0 0 0 0 0 0 0 0 0 0 0 0 0 0 0 0 0 0 0 0 0 0 0
0 0 0 0 0 0 0 0 -0 0 0 0 0 0 0 0 0 0 0 0 0 0 0 0 0 0 0 0 0 0 0 0 0 0 0 0 0 0 0 0 0 0 0 0 0 0 0 0 0
0 0 0 0 0 0 0 0 0 0 0 0 0 0 0 0 0 0 0 0 0 0 0 0 0 0 0 0 0 0 0 0 0 0 0 0 0 0 0 0 0 0 0 0 0 0 0 0 0
0 0 0 0 0 0 0 0 0 -0 -0 -0 0 0 0 0 0 0 0 0 0 0 0 0 0 0 0 0 0 0 0 0 0 0 0 0 0 0 0 0 0 0 0 0 0 0 0 0 0
0 0 0 0 0 0 0 0 0 0 0 0 0 0 0 0 0 0 0 0 0 0 0 0 0 0 0 0 0 0 0 0 0 0 0 0 0 0 0 0 0 0 0 0 0 0 0 0 0
0 0 0 0 0 0 0 0 0 0 0 0 0 0 0 0 0 0 0 0 0 0 0 0 0 0 0 0 0 0 0 0 0 0 0 0 0 0 0 0 0 0 0 0 0 0 0 0 0
0 0 0 0 0 0 0 0 0 0 0 0 0 0 0 0 0 0 0 0 0 0 0 0 0 0 0 0 0 0 0 0 0 0 0 0 0 0 0 0 0 0 0 0 0 0 0 0 0
0 0 0 0 0 0 0 0 0 0 0 0 -0 0 0 0 0 0 0 0 0 0 0 0 0 0 0 0 0 0 0 0 0 0 0 0 0 0 0 0 0 0 0 0 0 0 0 0 0
Wind_Speed_500mb
20 24 30 11 7 9 5 4 4 8 7 8 23 20 17 12 4 5 32 34 20 28 33 32 36 38 35 33 30 27 23 19 18 19 24 27 27 26 27 27 30 33 33 37 39 39 40 40 42
19 23 16 3 8 5 9 4 10 2 26 41 25 18 13 4 8 24 42 25 24 30 34 34 35 40 36 33 31 28 21 16 14 19 26 32 26 24 27 25 29 32 33 36 39 39 38 36 34
18 21 9 6 5 4 6 5 11 14 16 15 12 20 8 8 13 47 29 36 34 36 35 35 34 40 38 33 30 26 20 17 15 19 24 31 24 22 24 26 30 31 33 34 37 39 39 34 32
10 7 1 6 5 8 11 9 10 16 19 14 30 15 9 4 37 29 41 36 36 37 33 34 32 38 39 33 27 22 18 16 18 21 25 24 21 23 24 25 29 30 31 33 35 37 35 30 31
8 5 3 1 6 6 4 17 17 7 14 20 14 8 11 33 20 26 39 34 37 39 33 32 32 34 35 31 25 21 17 22 22 21 23 23 20 20 21 25 28 29 31 33 34 34 32 28 26
3 2 3 6 7 5 6 24 21 14 15 21 20 19 15 24 27 31 36 35 34 38 36 33 31 31 33 31 26 21 23 25 24 23 23 23 21 20 20 24 26 28 29 31 31 31 29 26 20
7 4 8 6 5 5 11 21 14 15 19 12 41 10 21 38 33 32 40 34 34 37 37 34 33 31 30 29 26 24 26 26 24 23 23 22 22 20 21 22 23 25 27 28 29 28 27 24 18
7 4 6 8 8 10 10 22 16 29 16 32 28 14 18 52 49 46 43 38 36 39 38 36 34 33 32 30 26 24 26 24 22 21 21 22 21 19 19 20 21 22 24 25 25 26 24 21 17
15 2 6 9 9 9 13 10 14 16 25 18 25 20 15 60 61 55 50 43 42 44 44 40 36 34 33 30 27 26 25 24 22 22 20 20 19 18 18 18 19 19 21 22 22 21 18 15 14
4 4 9 9 7 10 24 20 27 14 22 12 24 24 29 64 69 67 65 60 54 53 51 45 42 39 36 34 30 27 26 24 21 19 19 20 19 18 17 16 16 17 18 18 18 16 13 10 10
4 7 14 23 34 28 33 22 26 20 8 30 46 41 53 69 73 70 68 63 60 55 53 52 47 44 40 38 35 32 29 26 24 22 20 19 19 17 17 15 15 15 15 14 14 13 11 9 8
4 24 22 43 35 16 16 24 18 34 22 40 42 47 60 73 75 74 71 66 60 58 56 53 52 49 45 41 39 34 32 30 28 25 21 19 21 19 16 16 15 15 14 13 11 10 10 9 7
9 13 29 50 37 28 17 19 17 40 28 18 41 54 61 65 72 72 65 61 58 60 60 58 57 55 50 48 44 41 37 33 30 29 25 21 20 17 17 17 17 16 16 14 13 12 10 9 9
14 19 39 42 43 27 12 12 9 29 35 26 37 57 63 66 69 76 74 69 67 63 62 60 61 56 55 52 48 45 42 36 36 33 29 24 22 20 21 20 19 18 17 16 15 14 12 12 12
4 9 20 54 37 16 18 15 16 21 32 41 43 50 67 66 74 74 68 72 68 65 63 64 63 60 58 55 51 49 46 43 41 37 35 32 29 26 24 23 21 19 18 17 17 17 16 15 15
9 4 12 27 26 20 18 18 12 39 37 45 46 53 62 68 70 69 73 73 70 66 66 66 66 67 63 59 55 54 51 50 44 40 38 37 35 34 31 27 23 22 22 21 21 20 19 18 16
8 15 20 26 22 14 15 13 22 35 52 56 51 61 65 71 72 70 75 76 73 69 67 67 71 71 71 65 61 58 56 55 49 45 43 42 40 39 37 33 29 29 28 28 26 24 21 18 16
22 12 15 23 9 10 16 31 17 19 38 59 68 60 71 77 76 69 70 72 78 80 72 69 69 73 74 74 69 65 65 62 55 51 48 44 45 43 42 39 38 38 37 34 32 29 25 20 19
16 20 30 21 15 13 33 35 36 46 34 34 47 65 72 78 72 68 70 68 73 79 80 76 73 73 75 81 82 78 77 71 65 59 54 51 49 47 46 44 44 46 45 38 34 32 31 25 24
14 16 31 23 13 15 22 39 41 25 27 52 62 57 62 79 79 77 73 75 76 76 76 76 74 73 76 79 78 77 75 79 72 65 61 59 56 51 51 49 48 49 49 43 41 41 38 29 32
28 21 16 25 6 12 9 32 33 18 53 62 72 77 78 78 83 78 84 84 82 83 81 80 78 74 73 76 71 71 73 77 77 77 70 68 61 57 56 53 50 50 52 50 46 45 42 36 37
31 27 23 22 2 13 18 18 20 16 36 36 68 79 92 92 85 81 82 89 94 90 82 81 81 77 74 73 74 79 83 84 84 79 73 68 63 60 59 57 53 50 49 52 49 46 43 40 38
15 14 4 12 7 9 9 7 12 6 16 26 47 70 87 100 93 88 88 86 91 93 87 81 83 80 75 76 78 78 83 82 78 74 69 66 65 65 63 61 58 56 55 53 53 50 52 48 50
13 6 12 6 3 10 25 16 13 12 18 15 19 59 78 92 96 88 82 83 84 95 93 86 84 83 81 79 80 79 80 82 81 76 71 66 65 70 70 67 65 61 60 59 55 53 53 54 55
15 18 5 6 9 13 3 15 27 14 20 17 19 42 54 60 72 87 88 84 84 91 98 94 88 84 82 84 82 81 78 79 79 73 72 69 69 71 73 69 69 67 64 63 59 58 59 57 57
34 9 12 14 8 3 9 16 12 31 51 56 49 39 30 43 52 59 65 82 87 86 89 95 94 89 84 83 83 79 80 79 79 75 75 72 71 71 67 65 66 65 63 63 61 63 62 64 63
13 11 4 15 4 5 9 15 18 29 22 24 38 49 57 33 29 37 58 71 61 73 82 86 90 89 86 79 77 80 81 79 78 77 76 76 74 73 68 63 61 63 62 61 60 64 67 66 66
16 27 9 8 9 9 9 9 16 13 26 17 16 37 45 52 45 36 37 35 52 60 64 72 81 86 80 74 76 78 78 81 80 82 80 79 77 74 67 64 62 62 61 60 62 64 69 69 71
13 18 10 12 10 10 3 11 17 28 9 17 18 51 47 42 52 47 44 42 40 51 56 60 69 75 79 76 74 77 79 81 85 87 85 82 78 74 68 62 62 65 65 65 67 68 71 73 74
50 20 9 10 13 9 5 13 10 14 14 19 32 31 35 31 34 39 38 39 39 41 48 57 64 70 73 71 72 74 76 79 84 86 85 82 78 73 65 63 64 65 65 68 70 73 75 74 73
Wind_Direction_500mb
310 321 324 327 40 62 273 248 158 158 65 89 83 95 110 63 75 196 140 160 175 175 164 166 154 154 151 147 142 138 142 132 126 119 102 101 104 97 93 92 91 91 91 94 97 100 100 91 91
309 315 330 357 82 43 279 283 147 207 131 107 85 85 55 71 118 146 149 161 171 167 160 156 156 157 156 156 152 154 154 148 133 113 111 101 110 107 103 97 96 95 95 98 102 107 108 103 94
300 309 325 85 105 193 239 241 162 124 124 106 102 81 92 118 153 153 166 164 169 164 157 154 158 163 161 158 165 163 164 162 151 136 127 116 123 114 109 100 99 97 97 101 106 109 111 111 101
310 303 328 92 232 268 186 204 178 131 99 88 115 75 88 242 159 173 162 161 168 162 156 154 158 167 170 169 168 163 163 164 162 145 140 135 121 107 109 106 101 100 101 105 110 113 112 102 92
294 289 12 85 258 266 187 182 163 124 130 124 131 130 99 138 174 174 166 166 172 161 157 155 156 163 173 175 177 173 165 155 152 138 134 139 128 112 114 113 109 107 108 112 113 114 114 109 103
287 352 45 237 241 214 230 192 167 150 147 138 114 115 151 195 182 187 178 173 177 166 161 159 159 163 169 174 180 174 161 152 146 138 134 139 135 125 121 117 115 111 111 115 117 119 119 116 106
346 102 217 228 235 258 202 189 183 165 155 170 144 100 157 177 189 194 186 184 178 178 170 167 165 166 168 166 167 166 161 151 148 145 143 140 140 138 128 122 119 113 112 118 121 120 121 120 108
329 352 235 231 213 248 218 179 184 164 182 150 174 158 174 181 184 187 188 186 185 184 183 178 175 171 169 168 165 160 161 155 153 154 152 153 152 144 134 130 126 124 121 121 124 127 129 127 119
326 291 246 238 205 242 196 184 172 179 163 174 182 182 209 174 181 184 187 191 192 191 190 188 185 181 178 176 170 166 165 166 167 165 163 160 157 154 147 139 136 134 132 134 136 139 142 136 124
313 219 235 254 283 244 203 200 172 164 166 180 183 189 178 175 183 189 194 195 195 195 193 194 194 191 189 185 182 180 179 178 178 177 178 171 162 162 160 154 149 146 145 146 148 149 151 143 130
293 245 314 282 280 273 210 207 186 165 244 197 196 175 174 180 188 198 201 203 200 197 197 196 198 198 198 195 192 189 189 190 188 190 186 179 172 169 173 174 167 164 162 167 163 166 167 166 155
227 261 291 271 294 285 198 191 188 188 212 218 212 203 182 185 194 201 207 207 203 203 204 201 201 203 203 202 202 200 199 197 197 201 196 190 185 185 189 188 189 185 184 186 186 191 188 187 181
195 264 306 302 310 280 257 206 204 211 211 235 207 197 195 197 200 205 212 212 210 210 208 207 208 205 207 206 207 207 208 206 205 209 206 203 198 191 201 198 200 199 201 204 207 211 209 207 214
186 248 265 293 294 278 269 251 206 227 215 227 199 200 204 203 206 205 210 215 215 216 216 212 213 212 211 211 211 212 212 211 210 214 217 215 214 208 211 211 209 208 209 214 216 221 219 224 228
82 300 289 265 275 245 229 271 229 204 208 211 206 209 210 211 209 212 215 215 217 217 219 220 218 217 217 216 216 215 216 217 216 217 220 222 222 222 225 222 221 219 222 224 227 229 228 231 240
106 308 257 246 245 250 185 258 233 229 222 217 213 210 214 215 217 219 219 221 221 223 221 222 224 223 223 222 221 221 220 222 221 221 223 224 226 228 232 234 233 233 235 237 238 240 242 242 241
146 229 229 261 219 222 201 251 233 238 224 227 220 218 219 218 220 222 223 226 227 228 225 222 223 226 227 228 226 226 227 227 225 225 227 227 230 232 236 239 238 239 242 243 243 241 242 243 245
179 213 242 234 222 281 231 247 264 233 229 230 232 227 223 222 226 227 225 228 230 232 231 230 228 228 228 230 231 229 230 230 230 230 232 233 235 236 238 241 240 243 244 243 241 239 238 244 257
159 202 230 247 221 213 250 245 244 244 240 239 239 243 229 226 233 234 234 229 229 230 232 231 228 227 226 227 228 230 232 231 231 232 236 238 238 240 241 244 245 247 248 250 250 244 238 234 251
158 173 238 253 229 228 263 249 247 233 236 241 244 246 239 231 232 234 233 230 228 229 228 230 228 229 229 229 230 232 234 234 237 239 241 242 242 242 243 245 247 249 250 247 242 240 240 241 242
214 184 237 240 225 255 276 263 252 237 236 244 247 249 242 234 232 229 231 232 229 229 229 232 232 230 230 232 232 233 236 236 235 236 240 241 243 246 244 244 246 249 249 247 243 243 239 240 240
214 210 220 277 218 241 187 269 248 230 228 225 230 235 241 240 238 237 237 233 230 231 233 233 236 236 234 234 233 233 233 233 234 235 239 241 244 248 246 244 243 245 245 244 242 241 237 231 234
227 154 187 276 201 330 225 228 258 186 236 235 232 233 235 236 237 235 234 236 234 231 233 236 236 238 238 236 236 235 236 240 243 242 242 241 241 245 246 245 244 244 244 245 242 239 236 237 237
135 145 70 2 110 241 217 203 261 198 215 249 235 234 237 240 240 240 237 239 238 233 233 235 235 237 238 238 238 238 238 239 240 242 243 240 240 241 244 243 244 245 246 246 247 242 241 243 245
185 153 139 218 201 229 232 200 249 249 251 232 238 243 246 243 240 239 236 234 235 233 232 234 235 236 238 239 239 240 238 238 241 242 245 244 241 241 243 245 245 246 248 249 249 246 244 245 247
186 202 165 186 215 221 102 234 244 242 247 247 251 251 272 244 240 240 239 238 235 235 233 234 236 235 237 239 240 241 242 238 240 243 246 247 248 250 252 252 252 253 253 252 252 249 247 246 247
162 195 183 97 334 64 217 290 287 267 244 246 241 248 244 239 227 231 234 237 238 236 234 233 235 236 238 240 241 242 244 244 244 246 249 253 255 257 257 257 255 256 255 252 252 250 247 244 244
176 141 147 102 158 245 244 257 248 271 259 261 238 234 240 232 223 223 229 229 231 230 235 235 235 236 239 243 242 242 245 248 250 251 253 255 259 260 261 259 256 255 253 250 248 247 245 242 243
180 178 199 138 167 188 198 245 221 246 187 248 239 236 232 228 221 219 226 238 231 226 229 233 233 238 241 242 244 245 246 248 250 252 256 258 261 264 263 262 257 252 249 247 248 247 247 245 245
210 198 202 181 190 204 155 262 231 245 270 244 248 219 215 217 223 223 224 224 221 218 222 229 234 238 240 242 244 245 247 248 250 252 254 256 259 261 260 254 251 251 249 247 245 246 248 250 251
Wind_Speed_850mb
20 24 30 11 7 9 5 4 4 8 7 8 23 20 17 12 4 5 32 34 20 28 33 32 36 38 35 33 30 27 23 19 18 19 24 27 27 26 27 27 30 33 33 37 39 39 40 40 42
19 23 16 3 8 5 9 4 10 2 26 41 25 18 13 4 8 24 42 25 24 30 34 34 35 40 36 33 31 28 21 16 14 19 26 32 26 24 27 25 29 32 33 36 39 39 38 36 34
18 21 9 6 5 4 6 5 11 14 16 15 12 20 8 8 13 47 29 36 34 36 35 35 34 40 38 33 30 26 20 17 15 19 24 31 24 22 24 26 30 31 33 34 37 39 39 34 32
10 7 1 6 5 8 11 9 10 16 19 14 30 15 9 4 37 29 41 36 36 37 33 34 32 38 39 33 27 22 18 16 18 21 25 24 21 23 24 25 29 30 31 33 35 37 35 30 31
8 5 3 1 6 6 4 17 17 7 14 20 14 8 11 33 20 26 39 34 37 39 33 32 32 34 35 31 25 21 17 22 22 21 23 23 20 20 21 25 28 29 31 33 34 34 32 28 26
3 2 3 6 7 5 6 24 21 14 15 21 20 19 15 24 27 31 36 35 34 38 36 33 31 31 33 31 26 21 23 25 24 23 23 23 21 20 20 24 26 28 29 31 31 31 29 26 20
7 4 8 6 5 5 11 21 14 15 19 12 41 10 21 38 33 32 40 34 34 37 37 34 33 31 30 29 26 24 26 26 24 23 23 22 22 20 21 22 23 25 27 28 29 28 27 24 18
7 4 6 8 8 10 10 22 16 29 16 32 28 14 18 52 49 46 43 38 36 39 38 36 34 33 32 30 26 24 26 24 22 21 21 22 21 19 19 20 21 22 24 25 25 26 24 21 17
15 2 6 9 9 9 13 10 14 16 25 18 25 20 15 60 61 55 50 43 42 44 44 40 36 34 33 30 27 26 25 24 22 22 20 20 19 18 18 18 19 19 21 22 22 21 18 15 14
4 4 9 9 7 10 24 20 27 14 22 12 24 24 29 64 69 67 65 60 54 53 51 45 42 39 36 34 30 27 26 24 21 19 19 20 19 18 17 16 16 17 18 18 18 16 13 10 10
4 7 14 23 34 28 33 22 26 20 8 30 46 41 53 69 73 70 68 63 60 55 53 52 47 44 40 38 35 32 29 26 24 22 20 19 19 17 17 15 15 15 15 14 14 13 11 9 8
4 24 22 43 35 16 16 24 18 34 22 40 42 47 60 73 75 74 71 66 60 58 56 53 52 49 45 41 39 34 32 30 28 25 21 19 21 19 16 16 15 15 14 13 11 10 10 9 7
9 13 29 50 37 28 17 19 17 40 28 18 41 54 61 65 72 72 65 61 58 60 60 58 57 55 50 48 44 41 37 33 30 29 25 21 20 17 17 17 17 16 16 14 13 12 10 9 9
14 19 39 42 43 27 12 12 9 29 35 26 37 57 63 66 69 76 74 69 67 63 62 60 61 56 55 52 48 45 42 36 36 33 29 24 22 20 21 20 19 18 17 16 15 14 12 12 12
4 9 20 54 37 16 18 15 16 21 32 41 43 50 67 66 74 74 68 72 68 65 63 64 63 60 58 55 51 49 46 43 41 37 35 32 29 26 24 23 21 19 18 17 17 17 16 15 15
9 4 12 27 26 20 18 18 12 39 37 45 46 53 62 68 70 69 73 73 70 66 66 66 66 67 63 59 55 54 51 50 44 40 38 37 35 34 31 27 23 22 22 21 21 20 19 18 16
8 15 20 26 22 14 15 13 22 35 52 56 51 61 65 71 72 70 75 76 73 69 67 67 71 71 71 65 61 58 56 55 49 45 43 42 40 39 37 33 29 29 28 28 26 24 21 18 16
22 12 15 23 9 10 16 31 17 19 38 59 68 60 71 77 76 69 70 72 78 80 72 69 69 73 74 74 69 65 65 62 55 51 48 44 45 43 42 39 38 38 37 34 32 29 25 20 19
16 20 30 21 15 13 33 35 36 46 34 34 47 65 72 78 72 68 70 68 73 79 80 76 73 73 75 81 82 78 77 71 65 59 54 51 49 47 46 44 44 46 45 38 34 32 31 25 24
14 16 31 23 13 15 22 39 41 25 27 52 62 57 62 79 79 77 73 75 76 76 76 76 74 73 76 79 78 77 75 79 72 65 61 59 56 51 51 49 48 49 49 43 41 41 38 29 32
28 21 16 25 6 12 9 32 33 18 53 62 72 77 78 78 83 78 84 84 82 83 81 80 78 74 73 76 71 71 73 77 77 77 70 68 61 57 56 53 50 50 52 50 46 45 42 36 37
31 27 23 22 2 13 18 18 20 16 36 36 68 79 92 92 85 81 82 89 94 90 82 81 81 77 74 73 74 79 83 84 84 79 73 68 63 60 59 57 53 50 49 52 49 46 43 40 38
15 14 4 12 7 9 9 7 12 6 16 26 47 70 87 100 93 88 88 86 91 93 87 81 83 80 75 76 78 78 83 82 78 74 69 66 65 65 63 61 58 56 55 53 53 50 52 48 50
13 6 12 6 3 10 25 16 13 12 18 15 19 59 78 92 96 88 82 83 84 95 93 86 84 83 81 79 80 79 80 82 81 76 71 66 65 70 70 67 65 61 60 59 55 53 53 54 55
15 18 5 6 9 13 3 15 27 14 20 17 19 42 54 60 72 87 88 84 84 91 98 94 88 84 82 84 82 81 78 79 79 73 72 69 69 71 73 69 69 67 64 63 59 58 59 57 57
34 9 12 14 8 3 9 16 12 31 51 56 49 39 30 43 52 59 65 82 87 86 89 95 94 89 84 83 83 79 80 79 79 75 75 72 71 71 67 65 66 65 63 63 61 63 62 64 63
13 11 4 15 4 5 9 15 18 29 22 24 38 49 57 33 29 37 58 71 61 73 82 86 90 89 86 79 77 80 81 79 78 77 76 76 74 73 68 63 61 63 62 61 60 64 67 66 66
16 27 9 8 9 9 9 9 16 13 26 17 16 37 45 52 45 36 37 35 52 60 64 72 81 86 80 74 76 78 78 81 80 82 80 79 77 74 67 64 62 62 61 60 62 64 69 69 71
13 18 10 12 10 10 3 11 17 28 9 17 18 51 47 42 52 47 44 42 40 51 56 60 69 75 79 76 74 77 79 81 85 87 85 82 78 74 68 62 62 65 65 65 67 68 71 73 74
50 20 9 10 13 9 5 13 10 14 14 19 32 31 35 31 34 39 38 39 39 41 48 57 64 70 73 71 72 74 76 79 84 86 85 82 78 73 65 63 64 65 65 68 70 73 75 74 73
Wind_Direction_850mb
310 321 324 327 40 62 273 248 158 158 65 89 83 95 110 63 75 196 140 160 175 175 164 166 154 154 151 147 142 138 142 132 126 119 102 101 104 97 93 92 91 91 91 94 97 100 100 91 91
309 315 330 357 82 43 279 283 147 207 131 107 85 85 55 71 118 146 149 161 171 167 160 156 156 157 156 156 152 154 154 148 133 113 111 101 110 107 103 97 96 95 95 98 102 107 108 103 94
300 309 325 85 105 193 239 241 162 124 124 106 102 81 92 118 153 153 166 164 169 164 157 154 158 163 161 158 165 163 164 162 151 136 127 116 123 114 109 100 99 97 97 101 106 109 111 111 101
310 303 328 92 232 268 186 204 178 131 99 88 115 75 88 242 159 173 162 161 168 162 156 154 158 167 170 169 168 163 163 164 162 145 140 135 121 107 109 106 101 100 101 105 110 113 112 102 92
294 289 12 85 258 266 187 182 163 124 130 124 131 130 99 138 174 174 166 166 172 161 157 155 156 163 173 175 177 173 165 155 152 138 134 139 128 112 114 113 109 107 108 112 113 114 114 109 103
287 352 45 237 241 214 230 192 167 150 147 138 114 115 151 195 182 187 178 173 177 166 161 159 159 163 169 174 180 174 161 152 146 138 134 139 135 125 121 117 115 111 111 115 117 119 119 116 106
346 102 217 228 235 258 202 189 183 165 155 170 144 100 157 177 189 194 186 184 178 178 170 167 165 166 168 166 167 166 161 151 148 145 143 140 140 138 128 122 119 113 112 118 121 120 121 120 108
329 352 235 231 213 248 218 179 184 164 182 150 174 158 174 181 184 187 188 186 185 184 183 178 175 171 169 168 165 160 161 155 153 154 152 153 152 144 134 130 126 124 121 121 124 127 129 127 119
326 291 246 238 205 242 196 184 172 179 163 174 182 182 209 174 181 184 187 191 192 191 190 188 185 181 178 176 170 166 165 166 167 165 163 160 157 154 147 139 136 134 132 134 136 139 142 136 124
313 219 235 254 283 244 203 200 172 164 166 180 183 189 178 175 183 189 194 195 195 195 193 194 194 191 189 185 182 180 179 178 178 177 178 171 162 162 160 154 149 146 145 146 148 149 151 143 130
293 245 314 282 280 273 210 207 186 165 244 197 196 175 174 180 188 198 201 203 200 197 197 196 198 198 198 195 192 189 189 190 188 190 186 179 172 169 173 174 167 164 162 167 163 166 167 166 155
227 261 291 271 294 285 198 191 188 188 212 218 212 203 182 185 194 201 207 207 203 203 204 201 201 203 203 202 202 200 199 197 197 201 196 190 185 185 189 188 189 185 184 186 186 191 188 187 181
195 264 306 302 310 280 257 206 204 211 211 235 207 197 195 197 200 205 212 212 210 210 208 207 208 205 207 206 207 207 208 206 205 209 206 203 198 191 201 198 200 199 201 204 207 211 209 207 214
186 248 265 293 294 278 269 251 206 227 215 227 199 200 204 203 206 205 210 215 215 216 216 212 213 212 211 211 211 212 212 211 210 214 217 215 214 208 211 211 209 208 209 214 216 221 219 224 228
82 300 289 265 275 245 229 271 229 204 208 211 206 209 210 211 209 212 215 215 217 217 219 220 218 217 217 216 216 215 216 217 216 217 220 222 222 222 225 222 221 219 222 224 227 229 228 231 240
106 308 257 246 245 250 185 258 233 229 222 217 213 210 214 215 217 219 219 221 221 223 221 222 224 223 223 222 221 221 220 222 221 221 223 224 226 228 232 234 233 233 235 237 238 240 242 242 241
146 229 229 261 219 222 201 251 233 238 224 227 220 218 219 218 220 222 223 226 227 228 225 222 223 226 227 228 226 226 227 227 225 225 227 227 230 232 236 239 238 239 242 243 243 241 242 243 245
179 213 242 234 222 281 231 247 264 233 229 230 232 227 223 222 226 227 225 228 230 232 231 230 228 228 228 230 231 229 230 230 230 230 232 233 235 236 238 241 240 243 244 243 241 239 238 244 257
159 202 230 247 221 213 250 245 244 244 240 239 239 243 229 226 233 234 234 229 229 230 232 231 228 227 226 227 228 230 232 231 231 232 236 238 238 240 241 244 245 247 248 250 250 244 238 234 251
158 173 238 253 229 228 263 249 247 233 236 241 244 246 239 231 232 234 233 230 228 229 228 230 228 229 229 229 230 232 234 234 237 239 241 242 242 242 243 245 247 249 250 247 242 240 240 241 242
214 184 237 240 225 255 276 263 252 237 236 244 247 249 242 234 232 229 231 232 229 229 229 232 232 230 230 232 232 233 236 236 235 236 240 241 243 246 244 244 246 249 249 247 243 243 239 240 240
214 210 220 277 218 241 187 269 248 230 228 225 230 235 241 240 238 237 237 233 230 231 233 233 236 236 234 234 233 233 233 233 234 235 239 241 244 248 246 244 243 245 245 244 242 241 237 231 234
227 154 187 276 201 330 225 228 258 186 236 235 232 233 235 236 237 235 234 236 234 231 233 236 236 238 238 236 236 235 236 240 243 242 242 241 241 245 246 245 244 244 244 245 242 239 236 237 237
135 145 70 2 110 241 217 203 261 198 215 249 235 234 237 240 240 240 237 239 238 233 233 235 235 237 238 238 238 238 238 239 240 242 243 240 240 241 244 243 244 245 246 246 247 242 241 243 245
185 153 139 218 201 229 232 200 249 249 251 232 238 243 246 243 240 239 236 234 235 233 232 234 235 236 238 239 239 240 238 238 241 242 245 244 241 241 243 245 245 246 248 249 249 246 244 245 247
186 202 165 186 215 221 102 234 244 242 247 247 251 251 272 244 240 240 239 238 235 235 233 234 236 235 237 239 240 241 242 238 240 243 246 247 248 250 252 252 252 253 253 252 252 249 247 246 247
162 195 183 97 334 64 217 290 287 267 244 246 241 248 244 239 227 231 234 237 238 236 234 233 235 236 238 240 241 242 244 244 244 246 249 253 255 257 257 257 255 256 255 252 252 250 247 244 244
176 141 147 102 158 245 244 257 248 271 259 261 238 234 240 232 223 223 229 229 231 230 235 235 235 236 239 243 242 242 245 248 250 251 253 255 259 260 261 259 256 255 253 250 248 247 245 242 243
180 178 199 138 167 188 198 245 221 246 187 248 239 236 232 228 221 219 226 238 231 226 229 233 233 238 241 242 244 245 246 248 250 252 256 258 261 264 263 262 257 252 249 247 248 247 247 245 245
210 198 202 181 190 204 155 262 231 245 270 244 248 219 215 217 223 223 224 224 221 218 222 229 234 238 240 242 244 245 247 248 250 252 254 256 259 261 260 254 251 251 249 247 245 246 248 250 251